Year,Month,Day,Hour,Minute,Value (Times are PST for temperature in C)
2013,11,20,00,00,0.40
2013,11,20,00,01,0.40
2013,11,20,00,02,0.40
2013,11,20,00,03,0.40
2013,11,20,00,04,0.40
2013,11,20,00,05,0.30
2013,11,20,00,06,0.30
2013,11,20,00,07,0.30
2013,11,20,00,08,0.30
2013,11,20,00,09,0.30
2013,11,20,00,10,0.30
2013,11,20,00,11,0.20
2013,11,20,00,12,0.20
2013,11,20,00,13,0.20
2013,11,20,00,14,0.20
2013,11,20,00,15,0.20
2013,11,20,00,16,0.20
2013,11,20,00,17,0.20
2013,11,20,00,18,0.10
2013,11,20,00,19,0.10
2013,11,20,00,20,0.10
2013,11,20,00,21,0.10
2013,11,20,00,22,0.00
2013,11,20,00,23,0.00
2013,11,20,00,24,-0.10
2013,11,20,00,25,-0.10
2013,11,20,00,26,-0.20
2013,11,20,00,27,-0.20
2013,11,20,00,28,-0.30
2013,11,20,00,29,-0.30
2013,11,20,00,30,-0.40
2013,11,20,00,31,-0.40
2013,11,20,00,32,-0.50
2013,11,20,00,33,-0.50
2013,11,20,00,34,-0.60
2013,11,20,00,35,-0.60
2013,11,20,00,36,-0.70
2013,11,20,00,37,-0.70
2013,11,20,00,38,-0.70
2013,11,20,00,39,-0.70
2013,11,20,00,40,-0.70
2013,11,20,00,41,-0.80
2013,11,20,00,42,-0.80
2013,11,20,00,43,-0.80
2013,11,20,00,44,-0.80
2013,11,20,00,45,-0.80
2013,11,20,00,46,-0.80
2013,11,20,00,47,-0.80
2013,11,20,00,48,-0.80
2013,11,20,00,49,-0.90
2013,11,20,00,50,-0.90
2013,11,20,00,51,-1.00
2013,11,20,00,52,-1.10
2013,11,20,00,53,-1.10
2013,11,20,00,54,-1.20
2013,11,20,00,55,-1.20
2013,11,20,00,56,-1.30
2013,11,20,00,57,-1.30
2013,11,20,00,58,-1.30
2013,11,20,00,59,-1.30
2013,11,20,01,00,-1.40
2013,11,20,01,01,-1.40
2013,11,20,01,02,-1.40
2013,11,20,01,03,-1.40
2013,11,20,01,04,-1.50
2013,11,20,01,05,-1.50
2013,11,20,01,06,-1.50
2013,11,20,01,07,-1.50
2013,11,20,01,08,-1.40
2013,11,20,01,09,-1.40
2013,11,20,01,10,-1.40
2013,11,20,01,11,-1.40
2013,11,20,01,12,-1.40
2013,11,20,01,13,-1.40
2013,11,20,01,14,-1.40
2013,11,20,01,15,-1.40
2013,11,20,01,16,-1.40
2013,11,20,01,17,-1.40
2013,11,20,01,18,-1.40
2013,11,20,01,19,-1.40
2013,11,20,01,20,-1.50
2013,11,20,01,21,-1.40
2013,11,20,01,22,-1.50
2013,11,20,01,23,-1.50
2013,11,20,01,24,-1.50
2013,11,20,01,25,-1.50
2013,11,20,01,26,-1.50
2013,11,20,01,27,-1.50
2013,11,20,01,28,-1.50
2013,11,20,01,29,-1.50
2013,11,20,01,30,-1.60
2013,11,20,01,31,-1.60
2013,11,20,01,32,-1.60
2013,11,20,01,33,-1.60
2013,11,20,01,34,-1.60
2013,11,20,01,35,-1.60
2013,11,20,01,36,-1.60
2013,11,20,01,37,-1.60
2013,11,20,01,38,-1.60
2013,11,20,01,39,-1.60
2013,11,20,01,40,-1.60
2013,11,20,01,41,-1.60
2013,11,20,01,42,-1.60
2013,11,20,01,43,-1.60
2013,11,20,01,44,-1.60
2013,11,20,01,45,-1.60
2013,11,20,01,46,-1.60
2013,11,20,01,47,-1.60
2013,11,20,01,48,-1.60
2013,11,20,01,49,-1.60
2013,11,20,01,50,-1.50
2013,11,20,01,51,-1.40
2013,11,20,01,52,-1.30
2013,11,20,01,53,-1.20
2013,11,20,01,54,-1.00
2013,11,20,01,55,-0.80
2013,11,20,01,56,-0.80
2013,11,20,01,57,-0.70
2013,11,20,01,58,-0.60
2013,11,20,01,59,-0.60
2013,11,20,02,00,-0.50
2013,11,20,02,01,-0.50
2013,11,20,02,02,-0.50
2013,11,20,02,03,-0.40
2013,11,20,02,04,-0.30
2013,11,20,02,05,-0.20
2013,11,20,02,06,-0.10
2013,11,20,02,07,0.00
2013,11,20,02,08,0.00
2013,11,20,02,09,0.10
2013,11,20,02,10,0.10
2013,11,20,02,11,0.20
2013,11,20,02,12,0.20
2013,11,20,02,13,0.20
2013,11,20,02,14,0.20
2013,11,20,02,15,0.20
2013,11,20,02,16,0.10
2013,11,20,02,17,0.10
2013,11,20,02,18,0.10
2013,11,20,02,19,0.10
2013,11,20,02,20,0.10
2013,11,20,02,21,0.00
2013,11,20,02,22,0.00
2013,11,20,02,23,0.00
2013,11,20,02,24,-0.10
2013,11,20,02,25,-0.10
2013,11,20,02,26,-0.20
2013,11,20,02,27,-0.30
2013,11,20,02,28,-0.30
2013,11,20,02,29,-0.30
2013,11,20,02,30,-0.30
2013,11,20,02,31,-0.30
2013,11,20,02,32,-0.30
2013,11,20,02,33,-0.30
2013,11,20,02,34,-0.30
2013,11,20,02,35,-0.30
2013,11,20,02,36,-0.40
2013,11,20,02,37,-0.40
2013,11,20,02,38,-0.40
2013,11,20,02,39,-0.50
2013,11,20,02,40,-0.50
2013,11,20,02,41,-0.50
2013,11,20,02,42,-0.50
2013,11,20,02,43,-0.50
2013,11,20,02,44,-0.50
2013,11,20,02,45,-0.50
2013,11,20,02,46,-0.50
2013,11,20,02,47,-0.50
2013,11,20,02,48,-0.50
2013,11,20,02,49,-0.40
2013,11,20,02,50,-0.40
2013,11,20,02,51,-0.40
2013,11,20,02,52,-0.40
2013,11,20,02,53,-0.40
2013,11,20,02,54,-0.40
2013,11,20,02,55,-0.40
2013,11,20,02,56,-0.40
2013,11,20,02,57,-0.40
2013,11,20,02,58,-0.30
2013,11,20,02,59,-0.30
2013,11,20,03,00,-0.30
2013,11,20,03,01,-0.30
2013,11,20,03,02,-0.30
2013,11,20,03,03,-0.40
2013,11,20,03,04,-0.40
2013,11,20,03,05,-0.40
2013,11,20,03,06,-0.50
2013,11,20,03,07,-0.50
2013,11,20,03,08,-0.60
2013,11,20,03,09,-0.60
2013,11,20,03,10,-0.60
2013,11,20,03,11,-0.60
2013,11,20,03,12,-0.70
2013,11,20,03,13,-0.70
2013,11,20,03,14,-0.70
2013,11,20,03,15,-0.70
2013,11,20,03,16,-0.70
2013,11,20,03,17,-0.80
2013,11,20,03,18,-0.80
2013,11,20,03,19,-0.80
2013,11,20,03,20,-0.80
2013,11,20,03,21,-0.80
2013,11,20,03,22,-0.80
2013,11,20,03,23,-0.80
2013,11,20,03,24,-0.80
2013,11,20,03,25,-0.80
2013,11,20,03,26,-0.80
2013,11,20,03,27,-0.80
2013,11,20,03,28,-0.80
2013,11,20,03,29,-0.80
2013,11,20,03,30,-0.80
2013,11,20,03,31,-0.80
2013,11,20,03,32,-0.80
2013,11,20,03,33,-0.80
2013,11,20,03,34,-0.80
2013,11,20,03,35,-0.80
2013,11,20,03,36,-0.80
2013,11,20,03,37,-0.90
2013,11,20,03,38,-0.90
2013,11,20,03,39,-1.00
2013,11,20,03,40,-1.00
2013,11,20,03,41,-1.00
2013,11,20,03,42,-1.10
2013,11,20,03,43,-1.10
2013,11,20,03,44,-1.20
2013,11,20,03,45,-1.20
2013,11,20,03,46,-1.20
2013,11,20,03,47,-1.20
2013,11,20,03,48,-1.30
2013,11,20,03,49,-1.30
2013,11,20,03,50,-1.30
2013,11,20,03,51,-1.40
2013,11,20,03,52,-1.40
2013,11,20,03,53,-1.40
2013,11,20,03,54,-1.40
2013,11,20,03,55,-1.40
2013,11,20,03,56,-1.40
2013,11,20,03,57,-1.40
2013,11,20,03,58,-1.40
2013,11,20,03,59,-1.40
2013,11,20,04,00,-1.40
2013,11,20,04,01,-1.40
2013,11,20,04,02,-1.40
2013,11,20,04,03,-1.40
2013,11,20,04,04,-1.40
2013,11,20,04,05,-1.40
2013,11,20,04,06,-1.40
2013,11,20,04,07,-1.40
2013,11,20,04,08,-1.40
2013,11,20,04,09,-1.40
2013,11,20,04,10,-1.40
2013,11,20,04,11,-1.40
2013,11,20,04,12,-1.40
2013,11,20,04,13,-1.40
2013,11,20,04,14,-1.40
2013,11,20,04,15,-1.50
2013,11,20,04,16,-1.50
2013,11,20,04,17,-1.50
2013,11,20,04,18,-1.50
2013,11,20,04,19,-1.50
2013,11,20,04,20,-1.50
2013,11,20,04,21,-1.50
2013,11,20,04,22,-1.50
2013,11,20,04,23,-1.50
2013,11,20,04,24,-1.50
2013,11,20,04,25,-1.50
2013,11,20,04,26,-1.50
2013,11,20,04,27,-1.50
2013,11,20,04,28,-1.50
2013,11,20,04,29,-1.50
2013,11,20,04,30,-1.50
2013,11,20,04,31,-1.50
2013,11,20,04,32,-1.50
2013,11,20,04,33,-1.40
2013,11,20,04,34,-1.40
2013,11,20,04,35,-1.40
2013,11,20,04,36,-1.40
2013,11,20,04,37,-1.30
2013,11,20,04,38,-1.30
2013,11,20,04,39,-1.30
2013,11,20,04,40,-1.30
2013,11,20,04,41,-1.30
2013,11,20,04,42,-1.30
2013,11,20,04,43,-1.30
2013,11,20,04,44,-1.30
2013,11,20,04,45,-1.30
2013,11,20,04,46,-1.30
2013,11,20,04,47,-1.40
2013,11,20,04,48,-1.40
2013,11,20,04,49,-1.40
2013,11,20,04,50,-1.40
2013,11,20,04,51,-1.40
2013,11,20,04,52,-1.40
2013,11,20,04,53,-1.40
2013,11,20,04,54,-1.40
2013,11,20,04,55,-1.40
2013,11,20,04,56,-1.40
2013,11,20,04,57,-1.50
2013,11,20,04,58,-1.50
2013,11,20,04,59,-1.50
2013,11,20,05,00,-1.60
2013,11,20,05,01,-1.60
2013,11,20,05,02,-1.60
2013,11,20,05,03,-1.60
2013,11,20,05,04,-1.70
2013,11,20,05,05,-1.70
2013,11,20,05,06,-1.70
2013,11,20,05,07,-1.70
2013,11,20,05,08,-1.70
2013,11,20,05,09,-1.80
2013,11,20,05,10,-1.80
2013,11,20,05,11,-1.80
2013,11,20,05,12,-1.80
2013,11,20,05,13,-1.80
2013,11,20,05,14,-1.80
2013,11,20,05,15,-1.80
2013,11,20,05,16,-1.80
2013,11,20,05,17,-1.80
2013,11,20,05,18,-1.80
2013,11,20,05,19,-1.80
2013,11,20,05,20,-1.80
2013,11,20,05,21,-1.80
2013,11,20,05,22,-1.70
2013,11,20,05,23,-1.70
2013,11,20,05,24,-1.70
2013,11,20,05,25,-1.70
2013,11,20,05,26,-1.70
2013,11,20,05,27,-1.70
2013,11,20,05,28,-1.70
2013,11,20,05,29,-1.70
2013,11,20,05,30,-1.70
2013,11,20,05,31,-1.80
2013,11,20,05,32,-1.80
2013,11,20,05,33,-1.80
2013,11,20,05,34,-1.90
2013,11,20,05,35,-1.90
2013,11,20,05,36,-1.90
2013,11,20,05,37,-1.90
2013,11,20,05,38,-1.90
2013,11,20,05,39,-1.90
2013,11,20,05,40,-1.90
2013,11,20,05,41,-1.90
2013,11,20,05,42,-1.90
2013,11,20,05,43,-1.90
2013,11,20,05,44,-1.90
2013,11,20,05,45,-1.90
2013,11,20,05,46,-1.90
2013,11,20,05,47,-1.90
2013,11,20,05,48,-1.90
2013,11,20,05,49,-1.90
2013,11,20,05,50,-1.90
2013,11,20,05,51,-1.90
2013,11,20,05,52,-1.90
2013,11,20,05,53,-1.90
2013,11,20,05,54,-1.90
2013,11,20,05,55,-1.90
2013,11,20,05,56,-1.80
2013,11,20,05,57,-1.80
2013,11,20,05,58,-1.70
2013,11,20,05,59,-1.70
2013,11,20,06,00,-1.70
2013,11,20,06,01,-1.60
2013,11,20,06,02,-1.60
2013,11,20,06,03,-1.60
2013,11,20,06,04,-1.60
2013,11,20,06,05,-1.60
2013,11,20,06,06,-1.60
2013,11,20,06,07,-1.60
2013,11,20,06,08,-1.60
2013,11,20,06,09,-1.60
2013,11,20,06,10,-1.60
2013,11,20,06,11,-1.60
2013,11,20,06,12,-1.60
2013,11,20,06,13,-1.60
2013,11,20,06,14,-1.60
2013,11,20,06,15,-1.60
2013,11,20,06,16,-1.70
2013,11,20,06,17,-1.70
2013,11,20,06,18,-1.70
2013,11,20,06,19,-1.70
2013,11,20,06,20,-1.70
2013,11,20,06,21,-1.70
2013,11,20,06,22,-1.80
2013,11,20,06,23,-1.80
2013,11,20,06,24,-1.80
2013,11,20,06,25,-1.80
2013,11,20,06,26,-1.80
2013,11,20,06,27,-1.80
2013,11,20,06,28,-1.90
2013,11,20,06,29,-1.90
2013,11,20,06,30,-1.90
2013,11,20,06,31,-1.90
2013,11,20,06,32,-1.90
2013,11,20,06,33,-2.00
2013,11,20,06,34,-1.90
2013,11,20,06,35,-1.90
2013,11,20,06,36,-2.00
2013,11,20,06,37,-2.00
2013,11,20,06,38,-2.00
2013,11,20,06,39,-2.00
2013,11,20,06,40,-2.00
2013,11,20,06,41,-2.10
2013,11,20,06,42,-2.10
2013,11,20,06,43,-2.10
2013,11,20,06,44,-2.10
2013,11,20,06,45,-2.20
2013,11,20,06,46,-2.20
2013,11,20,06,47,-2.20
2013,11,20,06,48,-2.20
2013,11,20,06,49,-2.20
2013,11,20,06,50,-2.20
2013,11,20,06,51,-2.20
2013,11,20,06,52,-2.20
2013,11,20,06,53,-2.20
2013,11,20,06,54,-2.20
2013,11,20,06,55,-2.20
2013,11,20,06,56,-2.30
2013,11,20,06,57,-2.30
2013,11,20,06,58,-2.30
2013,11,20,06,59,-2.30
2013,11,20,07,00,-2.30
2013,11,20,07,01,-2.30
2013,11,20,07,02,-2.40
2013,11,20,07,03,-2.40
2013,11,20,07,04,-2.40
2013,11,20,07,05,-2.40
2013,11,20,07,06,-2.40
2013,11,20,07,07,-2.40
2013,11,20,07,08,-2.50
2013,11,20,07,09,-2.50
2013,11,20,07,10,-2.50
2013,11,20,07,11,-2.50
2013,11,20,07,12,-2.50
2013,11,20,07,13,-2.50
2013,11,20,07,14,-2.50
2013,11,20,07,15,-2.50
2013,11,20,07,16,-2.50
2013,11,20,07,17,-2.50
2013,11,20,07,18,-2.50
2013,11,20,07,19,-2.50
2013,11,20,07,20,-2.50
2013,11,20,07,21,-2.60
2013,11,20,07,22,-2.60
2013,11,20,07,23,-2.60
2013,11,20,07,24,-2.60
2013,11,20,07,25,-2.60
2013,11,20,07,26,-2.60
2013,11,20,07,27,-2.70
2013,11,20,07,28,-2.70
2013,11,20,07,29,-2.70
2013,11,20,07,30,-2.70
2013,11,20,07,31,-2.60
2013,11,20,07,32,-2.60
2013,11,20,07,33,-2.60
2013,11,20,07,34,-2.60
2013,11,20,07,35,-2.60
2013,11,20,07,36,-2.60
2013,11,20,07,37,-2.50
2013,11,20,07,38,-2.50
2013,11,20,07,39,-2.50
2013,11,20,07,40,-2.50
2013,11,20,07,41,-2.50
2013,11,20,07,42,-2.60
2013,11,20,07,43,-2.60
2013,11,20,07,44,-2.60
2013,11,20,07,45,-2.60
2013,11,20,07,46,-2.60
2013,11,20,07,47,-2.60
2013,11,20,07,48,-2.50
2013,11,20,07,49,-2.50
2013,11,20,07,50,-2.60
2013,11,20,07,51,-2.60
2013,11,20,07,52,-2.50
2013,11,20,07,53,-2.50
2013,11,20,07,54,-2.40
2013,11,20,07,55,-2.40
2013,11,20,07,56,-2.40
2013,11,20,07,57,-2.40
2013,11,20,07,58,-2.40
2013,11,20,07,59,-2.40
2013,11,20,08,00,-2.40
2013,11,20,08,01,-2.40
2013,11,20,08,02,-2.40
2013,11,20,08,03,-2.40
2013,11,20,08,04,-2.40
2013,11,20,08,05,-2.50
2013,11,20,08,06,-2.50
2013,11,20,08,07,-2.50
2013,11,20,08,08,-2.50
2013,11,20,08,09,-2.60
2013,11,20,08,10,-2.60
2013,11,20,08,11,-2.60
2013,11,20,08,12,-2.60
2013,11,20,08,13,-2.60
2013,11,20,08,14,-2.70
2013,11,20,08,15,-2.70
2013,11,20,08,16,-2.70
2013,11,20,08,17,-2.70
2013,11,20,08,18,-2.70
2013,11,20,08,19,-2.70
2013,11,20,08,20,-2.70
2013,11,20,08,21,-2.70
2013,11,20,08,22,-2.70
2013,11,20,08,23,-2.70
2013,11,20,08,24,-2.70
2013,11,20,08,25,-2.70
2013,11,20,08,26,-2.70
2013,11,20,08,27,-2.60
2013,11,20,08,28,-2.60
2013,11,20,08,29,-2.60
2013,11,20,08,30,-2.60
2013,11,20,08,31,-2.60
2013,11,20,08,32,-2.60
2013,11,20,08,33,-2.60
2013,11,20,08,34,-2.60
2013,11,20,08,35,-2.60
2013,11,20,08,36,-2.60
2013,11,20,08,37,-2.60
2013,11,20,08,38,-2.60
2013,11,20,08,39,-2.50
2013,11,20,08,40,-2.50
2013,11,20,08,41,-2.40
2013,11,20,08,42,-2.40
2013,11,20,08,43,-2.40
2013,11,20,08,44,-2.30
2013,11,20,08,45,-2.30
2013,11,20,08,46,-2.30
2013,11,20,08,47,-2.30
2013,11,20,08,48,-2.20
2013,11,20,08,49,-2.20
2013,11,20,08,50,-2.20
2013,11,20,08,51,-2.20
2013,11,20,08,52,-2.20
2013,11,20,08,53,-2.20
2013,11,20,08,54,-2.20
2013,11,20,08,55,-2.20
2013,11,20,08,56,-2.20
2013,11,20,08,57,-2.20
2013,11,20,08,58,-2.20
2013,11,20,08,59,-2.10
2013,11,20,09,00,-2.10
2013,11,20,09,01,-2.10
2013,11,20,09,02,-2.10
2013,11,20,09,03,-2.10
2013,11,20,09,04,-2.10
2013,11,20,09,05,-2.10
2013,11,20,09,06,-2.10
2013,11,20,09,07,-2.10
2013,11,20,09,08,-2.10
2013,11,20,09,09,-2.20
2013,11,20,09,10,-2.20
2013,11,20,09,11,-2.20
2013,11,20,09,12,-2.20
2013,11,20,09,13,-2.20
2013,11,20,09,14,-2.20
2013,11,20,09,15,-2.20
2013,11,20,09,16,-2.20
2013,11,20,09,17,-2.20
2013,11,20,09,18,-2.20
2013,11,20,09,19,-2.20
2013,11,20,09,20,-2.20
2013,11,20,09,21,-2.30
2013,11,20,09,22,-2.30
2013,11,20,09,23,-2.30
2013,11,20,09,24,-2.30
2013,11,20,09,25,-2.30
2013,11,20,09,26,-2.30
2013,11,20,09,27,-2.30
2013,11,20,09,28,-2.30
2013,11,20,09,29,-2.30
2013,11,20,09,30,-2.30
2013,11,20,09,31,-2.30
2013,11,20,09,32,-2.30
2013,11,20,09,33,-2.30
2013,11,20,09,34,-2.30
2013,11,20,09,35,-2.30
2013,11,20,09,36,-2.30
2013,11,20,09,37,-2.30
2013,11,20,09,38,-2.20
2013,11,20,09,39,-2.20
2013,11,20,09,40,-2.20
2013,11,20,09,41,-2.20
2013,11,20,09,42,-2.20
2013,11,20,09,43,-2.20
2013,11,20,09,44,-2.20
2013,11,20,09,45,-2.20
2013,11,20,09,46,-2.20
2013,11,20,09,47,-2.10
2013,11,20,09,48,-2.10
2013,11,20,09,49,-2.10
2013,11,20,09,50,-2.10
2013,11,20,09,51,-2.10
2013,11,20,09,52,-2.10
2013,11,20,09,53,-2.10
2013,11,20,09,54,-2.10
2013,11,20,09,55,-2.10
2013,11,20,09,56,-2.20
2013,11,20,09,57,-2.20
2013,11,20,09,58,-2.20
2013,11,20,09,59,-2.20
2013,11,20,10,00,-2.20
2013,11,20,10,01,-2.20
2013,11,20,10,02,-2.20
2013,11,20,10,03,-2.20
2013,11,20,10,04,-2.20
2013,11,20,10,05,-2.20
2013,11,20,10,06,-2.20
2013,11,20,10,07,-2.20
2013,11,20,10,08,-2.20
2013,11,20,10,09,-2.20
2013,11,20,10,10,-2.10
2013,11,20,10,11,-2.10
2013,11,20,10,12,-2.10
2013,11,20,10,13,-2.10
2013,11,20,10,14,-2.10
2013,11,20,10,15,-2.10
2013,11,20,10,16,-2.00
2013,11,20,10,17,-2.00
2013,11,20,10,18,-2.00
2013,11,20,10,19,-1.90
2013,11,20,10,20,-1.90
2013,11,20,10,21,-1.90
2013,11,20,10,22,-1.90
2013,11,20,10,23,-1.90
2013,11,20,10,24,-1.90
2013,11,20,10,25,-1.90
2013,11,20,10,26,-1.80
2013,11,20,10,27,-1.80
2013,11,20,10,28,-1.80
2013,11,20,10,29,-1.80
2013,11,20,10,30,-1.80
2013,11,20,10,31,-1.80
2013,11,20,10,32,-1.70
2013,11,20,10,33,-1.70
2013,11,20,10,34,-1.70
2013,11,20,10,35,-1.70
2013,11,20,10,36,-1.70
2013,11,20,10,37,-1.70
2013,11,20,10,38,-1.70
2013,11,20,10,39,-1.60
2013,11,20,10,40,-1.60
2013,11,20,10,41,-1.50
2013,11,20,10,42,-1.50
2013,11,20,10,43,-1.40
2013,11,20,10,44,-1.40
2013,11,20,10,45,-1.30
2013,11,20,10,46,-1.30
2013,11,20,10,47,-1.30
2013,11,20,10,48,-1.20
2013,11,20,10,49,-1.20
2013,11,20,10,50,-1.20
2013,11,20,10,51,-1.20
2013,11,20,10,52,-1.20
2013,11,20,10,53,-1.10
2013,11,20,10,54,-1.10
2013,11,20,10,55,-1.10
2013,11,20,10,56,-1.00
2013,11,20,10,57,-1.00
2013,11,20,10,58,-1.00
2013,11,20,10,59,-0.90
2013,11,20,11,00,-0.90
2013,11,20,11,01,-0.80
2013,11,20,11,02,-0.80
2013,11,20,11,03,-0.70
2013,11,20,11,04,-0.70
2013,11,20,11,05,-0.60
2013,11,20,11,06,-0.40
2013,11,20,11,07,-0.30
2013,11,20,11,08,-0.20
2013,11,20,11,09,-0.10
2013,11,20,11,10,0.00
2013,11,20,11,11,0.10
2013,11,20,11,12,0.20
2013,11,20,11,13,0.30
2013,11,20,11,14,0.40
2013,11,20,11,15,0.60
2013,11,20,11,16,0.70
2013,11,20,11,17,0.80
2013,11,20,11,18,0.90
2013,11,20,11,19,1.00
2013,11,20,11,20,1.10
2013,11,20,11,21,1.20
2013,11,20,11,22,1.30
2013,11,20,11,23,1.40
2013,11,20,11,24,1.50
2013,11,20,11,25,1.70
2013,11,20,11,26,1.80
2013,11,20,11,27,1.90
2013,11,20,11,28,2.00
2013,11,20,11,29,2.10
2013,11,20,11,30,2.20
2013,11,20,11,31,2.30
2013,11,20,11,32,2.30
2013,11,20,11,33,2.40
2013,11,20,11,34,2.40
2013,11,20,11,35,2.50
2013,11,20,11,36,2.50
2013,11,20,11,37,2.60
2013,11,20,11,38,2.60
2013,11,20,11,39,2.70
2013,11,20,11,40,2.70
2013,11,20,11,41,2.70
2013,11,20,11,42,2.80
2013,11,20,11,43,2.80
2013,11,20,11,44,2.90
2013,11,20,11,45,2.90
2013,11,20,11,46,3.00
2013,11,20,11,47,3.10
2013,11,20,11,48,3.20
2013,11,20,11,49,3.20
2013,11,20,11,50,3.30
2013,11,20,11,51,3.40
2013,11,20,11,52,3.40
2013,11,20,11,53,3.50
2013,11,20,11,54,3.60
2013,11,20,11,55,3.60
2013,11,20,11,56,3.70
2013,11,20,11,57,3.70
2013,11,20,11,58,3.80
2013,11,20,11,59,3.80
2013,11,20,12,00,3.90
2013,11,20,12,01,4.00
2013,11,20,12,02,4.00
2013,11,20,12,03,4.10
2013,11,20,12,04,4.10
2013,11,20,12,05,4.20
2013,11,20,12,06,4.20
2013,11,20,12,07,4.30
2013,11,20,12,08,4.30
2013,11,20,12,09,4.30
2013,11,20,12,10,4.30
2013,11,20,12,11,4.40
2013,11,20,12,12,4.40
2013,11,20,12,13,4.50
2013,11,20,12,14,4.50
2013,11,20,12,15,4.60
2013,11,20,12,16,4.70
2013,11,20,12,17,4.80
2013,11,20,12,18,4.80
2013,11,20,12,19,4.90
2013,11,20,12,20,4.90
2013,11,20,12,21,4.80
2013,11,20,12,22,4.80
2013,11,20,12,23,4.80
2013,11,20,12,24,4.80
2013,11,20,12,25,4.90
2013,11,20,12,26,4.90
2013,11,20,12,27,4.90
2013,11,20,12,28,5.00
2013,11,20,12,29,5.00
2013,11,20,12,30,5.00
2013,11,20,12,31,5.00
2013,11,20,12,32,5.00
2013,11,20,12,33,5.00
2013,11,20,12,34,5.00
2013,11,20,12,35,5.00
2013,11,20,12,36,5.00
2013,11,20,12,37,5.00
2013,11,20,12,38,4.90
2013,11,20,12,39,5.00
2013,11,20,12,40,5.00
2013,11,20,12,41,5.00
2013,11,20,12,42,5.00
2013,11,20,12,43,5.00
2013,11,20,12,44,5.00
2013,11,20,12,45,5.00
2013,11,20,12,46,5.00
2013,11,20,12,47,5.00
2013,11,20,12,48,5.00
2013,11,20,12,49,5.00
2013,11,20,12,50,5.10
2013,11,20,12,51,5.10
2013,11,20,12,52,5.10
2013,11,20,12,53,5.10
2013,11,20,12,54,5.10
2013,11,20,12,55,5.10
2013,11,20,12,56,5.10
2013,11,20,12,57,5.10
2013,11,20,12,58,5.00
2013,11,20,12,59,5.00
2013,11,20,13,00,4.90
2013,11,20,13,01,4.80
2013,11,20,13,02,4.80
2013,11,20,13,03,4.70
2013,11,20,13,04,4.70
2013,11,20,13,05,4.70
2013,11,20,13,06,4.60
2013,11,20,13,07,4.60
2013,11,20,13,08,4.60
2013,11,20,13,09,4.60
2013,11,20,13,10,4.60
2013,11,20,13,11,4.50
2013,11,20,13,12,4.50
2013,11,20,13,13,4.50
2013,11,20,13,14,4.50
2013,11,20,13,15,4.50
2013,11,20,13,16,4.50
2013,11,20,13,17,4.50
2013,11,20,13,18,4.50
2013,11,20,13,19,4.50
2013,11,20,13,20,4.50
2013,11,20,13,21,4.50
2013,11,20,13,22,4.50
2013,11,20,13,23,4.50
2013,11,20,13,24,4.60
2013,11,20,13,25,4.60
2013,11,20,13,26,4.60
2013,11,20,13,27,4.70
2013,11,20,13,28,4.70
2013,11,20,13,29,4.70
2013,11,20,13,30,4.80
2013,11,20,13,31,4.80
2013,11,20,13,32,4.80
2013,11,20,13,33,4.90
2013,11,20,13,34,4.90
2013,11,20,13,35,4.90
2013,11,20,13,36,5.00
2013,11,20,13,37,5.00
2013,11,20,13,38,5.00
2013,11,20,13,39,5.00
2013,11,20,13,40,5.00
2013,11,20,13,41,5.00
2013,11,20,13,42,5.00
2013,11,20,13,43,5.10
2013,11,20,13,44,5.10
2013,11,20,13,45,5.10
2013,11,20,13,46,5.00
2013,11,20,13,47,5.00
2013,11,20,13,48,5.00
2013,11,20,13,49,5.00
2013,11,20,13,50,5.00
2013,11,20,13,51,5.00
2013,11,20,13,52,5.00
2013,11,20,13,53,5.00
2013,11,20,13,54,5.00
2013,11,20,13,55,5.00
2013,11,20,13,56,5.10
2013,11,20,13,57,5.10
2013,11,20,13,58,5.10
2013,11,20,13,59,5.20
2013,11,20,14,00,5.20
2013,11,20,14,01,5.20
2013,11,20,14,02,5.30
2013,11,20,14,03,5.30
2013,11,20,14,04,5.30
2013,11,20,14,05,5.30
2013,11,20,14,06,5.30
2013,11,20,14,07,5.30
2013,11,20,14,08,5.40
2013,11,20,14,09,5.40
2013,11,20,14,10,5.40
2013,11,20,14,11,5.40
2013,11,20,14,12,5.50
2013,11,20,14,13,5.50
2013,11,20,14,14,5.50
2013,11,20,14,15,5.50
2013,11,20,14,16,5.60
2013,11,20,14,17,5.60
2013,11,20,14,18,5.60
2013,11,20,14,19,5.60
2013,11,20,14,20,5.60
2013,11,20,14,21,5.60
2013,11,20,14,22,5.60
2013,11,20,14,23,5.70
2013,11,20,14,24,5.70
2013,11,20,14,25,5.70
2013,11,20,14,26,5.70
2013,11,20,14,27,5.70
2013,11,20,14,28,5.80
2013,11,20,14,29,5.80
2013,11,20,14,30,5.80
2013,11,20,14,31,5.80
2013,11,20,14,32,5.80
2013,11,20,14,33,5.80
2013,11,20,14,34,5.80
2013,11,20,14,35,5.80
2013,11,20,14,36,5.80
2013,11,20,14,37,5.80
2013,11,20,14,38,5.80
2013,11,20,14,39,5.80
2013,11,20,14,40,5.70
2013,11,20,14,41,5.70
2013,11,20,14,42,5.70
2013,11,20,14,43,5.70
2013,11,20,14,44,5.70
2013,11,20,14,45,5.70
2013,11,20,14,46,5.70
2013,11,20,14,47,5.70
2013,11,20,14,48,5.70
2013,11,20,14,49,5.70
2013,11,20,14,50,5.70
2013,11,20,14,51,5.80
2013,11,20,14,52,5.80
2013,11,20,14,53,5.80
2013,11,20,14,54,5.80
2013,11,20,14,55,5.70
2013,11,20,14,56,5.70
2013,11,20,14,57,5.60
2013,11,20,14,58,5.50
2013,11,20,14,59,5.40
2013,11,20,15,00,5.40
2013,11,20,15,01,5.30
2013,11,20,15,02,5.30
2013,11,20,15,03,5.30
2013,11,20,15,04,5.20
2013,11,20,15,05,5.20
2013,11,20,15,06,5.20
2013,11,20,15,07,5.20
2013,11,20,15,08,5.20
2013,11,20,15,09,5.20
2013,11,20,15,10,5.20
2013,11,20,15,11,5.20
2013,11,20,15,12,5.10
2013,11,20,15,13,5.10
2013,11,20,15,14,5.10
2013,11,20,15,15,5.00
2013,11,20,15,16,4.90
2013,11,20,15,17,4.90
2013,11,20,15,18,4.80
2013,11,20,15,19,4.70
2013,11,20,15,20,4.60
2013,11,20,15,21,4.50
2013,11,20,15,22,4.40
2013,11,20,15,23,4.30
2013,11,20,15,24,4.30
2013,11,20,15,25,4.20
2013,11,20,15,26,4.10
2013,11,20,15,27,4.10
2013,11,20,15,28,4.00
2013,11,20,15,29,4.00
2013,11,20,15,30,3.90
2013,11,20,15,31,3.90
2013,11,20,15,32,3.80
2013,11,20,15,33,3.70
2013,11,20,15,34,3.70
2013,11,20,15,35,3.60
2013,11,20,15,36,3.60
2013,11,20,15,37,3.50
2013,11,20,15,38,3.40
2013,11,20,15,39,3.40
2013,11,20,15,40,3.30
2013,11,20,15,41,3.30
2013,11,20,15,42,3.20
2013,11,20,15,43,3.20
2013,11,20,15,44,3.10
2013,11,20,15,45,3.10
2013,11,20,15,46,3.00
2013,11,20,15,47,3.00
2013,11,20,15,48,2.90
2013,11,20,15,49,2.90
2013,11,20,15,50,2.80
2013,11,20,15,51,2.70
2013,11,20,15,52,2.70
2013,11,20,15,53,2.60
2013,11,20,15,54,2.60
2013,11,20,15,55,2.50
2013,11,20,15,56,2.50
2013,11,20,15,57,2.40
2013,11,20,15,58,2.40
2013,11,20,15,59,2.30
2013,11,20,16,00,2.30
2013,11,20,16,01,2.20
2013,11,20,16,02,2.10
2013,11,20,16,03,2.10
2013,11,20,16,04,2.00
2013,11,20,16,05,1.90
2013,11,20,16,06,1.90
2013,11,20,16,07,1.80
2013,11,20,16,08,1.80
2013,11,20,16,09,1.80
2013,11,20,16,10,1.70
2013,11,20,16,11,1.70
2013,11,20,16,12,1.70
2013,11,20,16,13,1.70
2013,11,20,16,14,1.60
2013,11,20,16,15,1.60
2013,11,20,16,16,1.60
2013,11,20,16,17,1.60
2013,11,20,16,18,1.60
2013,11,20,16,19,1.50
2013,11,20,16,20,1.50
2013,11,20,16,21,1.40
2013,11,20,16,22,1.40
2013,11,20,16,23,1.30
2013,11,20,16,24,1.30
2013,11,20,16,25,1.30
2013,11,20,16,26,1.20
2013,11,20,16,27,1.20
2013,11,20,16,28,1.20
2013,11,20,16,29,1.10
2013,11,20,16,30,1.10
2013,11,20,16,31,1.10
2013,11,20,16,32,1.00
2013,11,20,16,33,1.00
2013,11,20,16,34,1.00
2013,11,20,16,35,1.00
2013,11,20,16,36,0.90
2013,11,20,16,37,0.90
2013,11,20,16,38,0.90
2013,11,20,16,39,0.90
2013,11,20,16,40,0.90
2013,11,20,16,41,0.90
2013,11,20,16,42,0.80
2013,11,20,16,43,0.80
2013,11,20,16,44,0.80
2013,11,20,16,45,0.80
2013,11,20,16,46,0.80
2013,11,20,16,47,0.70
2013,11,20,16,48,0.70
2013,11,20,16,49,0.70
2013,11,20,16,50,0.70
2013,11,20,16,51,0.70
2013,11,20,16,52,0.70
2013,11,20,16,53,0.60
2013,11,20,16,54,0.60
2013,11,20,16,55,0.60
2013,11,20,16,56,0.60
2013,11,20,16,57,0.50
2013,11,20,16,58,0.50
2013,11,20,16,59,0.50
2013,11,20,17,00,0.50
2013,11,20,17,01,0.40
2013,11,20,17,02,0.40
2013,11,20,17,03,0.40
2013,11,20,17,04,0.40
2013,11,20,17,05,0.40
2013,11,20,17,06,0.40
2013,11,20,17,07,0.30
2013,11,20,17,08,0.30
2013,11,20,17,09,0.30
2013,11,20,17,10,0.30
2013,11,20,17,11,0.20
2013,11,20,17,12,0.20
2013,11,20,17,13,0.10
2013,11,20,17,14,0.10
2013,11,20,17,15,0.00
2013,11,20,17,16,0.00
2013,11,20,17,17,-0.10
2013,11,20,17,18,-0.10
2013,11,20,17,19,-0.10
2013,11,20,17,20,-0.20
2013,11,20,17,21,-0.20
2013,11,20,17,22,-0.20
2013,11,20,17,23,-0.20
2013,11,20,17,24,-0.20
2013,11,20,17,25,-0.20
2013,11,20,17,26,-0.20
2013,11,20,17,27,-0.20
2013,11,20,17,28,-0.30
2013,11,20,17,29,-0.30
2013,11,20,17,30,-0.30
2013,11,20,17,31,-0.30
2013,11,20,17,32,-0.30
2013,11,20,17,33,-0.30
2013,11,20,17,34,-0.30
2013,11,20,17,35,-0.30
2013,11,20,17,36,-0.30
2013,11,20,17,37,-0.30